Hayward, WI

5:04 PM CDT on May 26, 2017 (GMT -0500)
Sawyer County

Weather History for KHYR - March, 2013

Change the Weather History Date:

Saturday, March 9, 2013

  Actual Average Record
Temperature  
Mean Temperature 39 °F -  
Max Temperature 48 °F 41 °F 51 °F (2007)
Min Temperature 30 °F 0 °F -12 °F (1970)
Degree Days  
Heating Degree Days 26    
Moisture  
Dew Point 29 °F    
Average Humidity 76    
Maximum Humidity 93    
Minimum Humidity 43    
Precipitation  
Precipitation 0.24 in - - ()
Sea Level Pressure  
Sea Level Pressure 29.88 in    
Wind  
Wind Speed 7 mph (SSE)    
Max Wind Speed 12 mph    
Max Gust Speed 22 mph    
Visibility 3 miles    
Events Rain , Snow    
Averages and records for this station are not official NWS values.
T = Trace of Precipitation, MM = Missing Value Source: NWS Daily Summary

Daily Weather History Graph

Daily Weather History Graph

Search for Another Location

Airport or City:

Trip Planner

Search our weather history database for the weather conditions in past years. The results will help you decide how hot, cold, wet, or windy it might be!

Date:

Astronomy

Mar. 09, 2013 Rise Set
Actual Time 6:29 AM CST 6:03 PM CST
Civil Twilight 5:59 AM CST 6:33 PM CST
Nautical Twilight 5:24 AM CST 7:08 PM CST
Astronomical Twilight 4:49 AM CST 7:43 PM CST
Moon 4:59 AM CST (3/9) 4:01 PM CST (3/9)
Length of Visible Light 12h 34m
Length of Day
11h 34m
Waning Crescent, 5% of the Moon is Illuminated
Mar 9
Waning Crescent
Mar 11
New
Mar 19
First Quarter
Mar 27
Full
Apr 2
Last Quarter

Hourly Weather History & Observations

Time (CST) Temp. Windchill Dew Point Humidity Pressure Visibility Wind Dir Wind Speed Gust Speed Precip Events Conditions
12:53 AM 32.0 °F 26.4 °F 21.9 °F 66% 30.16 in 10.0 mi SSE 5.8 mph - N/A   Clear
1:53 AM 32.0 °F 26.4 °F 21.0 °F 64% 30.14 in 10.0 mi SE 5.8 mph - N/A   Clear
2:53 AM 32.0 °F 24.8 °F 21.9 °F 66% 30.12 in 10.0 mi SSE 8.1 mph - N/A   Overcast
3:53 AM 30.9 °F 24.3 °F 21.9 °F 69% 30.09 in 10.0 mi SSE 6.9 mph - N/A   Overcast
4:53 AM 30.9 °F 23.5 °F 23.0 °F 72% 30.09 in 9.0 mi SSE 8.1 mph - N/A   Overcast
5:10 AM 30.2 °F 22.6 °F 23.0 °F 75% 30.04 in 9.0 mi SSE 8.1 mph - N/A   Overcast
5:53 AM 30.9 °F 23.5 °F 26.1 °F 82% 30.07 in 4.0 mi SE 8.1 mph - 0.02 in   Overcast
6:15 AM 30.2 °F 21.9 °F 26.6 °F 86% 30.01 in 4.0 mi SE 9.2 mph - 0.00 in Rain Light Freezing Rain
6:23 AM 30.2 °F 21.9 °F 26.6 °F 86% 30.00 in 3.0 mi SE 9.2 mph - 0.01 in Snow Light Snow
6:30 AM 30.2 °F 22.6 °F 26.6 °F 86% 30.00 in 1.8 mi SE 8.1 mph - 0.01 in Snow Light Snow
6:53 AM 30.9 °F 24.3 °F 27.0 °F 85% 30.04 in 1.5 mi ESE 6.9 mph - 0.03 in Snow Light Snow
7:13 AM 30.2 °F 22.6 °F 26.6 °F 86% 29.99 in 1.2 mi ESE 8.1 mph - 0.00 in Snow Light Snow
7:43 AM 44.6 °F 40.7 °F 26.6 °F 49% 29.97 in 1.5 mi ESE 6.9 mph - 0.00 in   Haze
7:53 AM 46.9 °F - 27.0 °F 46% 30.00 in 2.0 mi ESE 6.9 mph - 0.00 in   Haze
8:10 AM 48.2 °F - 26.6 °F 43% 29.96 in 3.0 mi Variable 5.8 mph - N/A   Haze
8:27 AM 48.2 °F - 28.4 °F 46% 29.94 in 2.5 mi SE 10.4 mph - N/A   Haze
8:45 AM 48.2 °F - 28.4 °F 46% 29.93 in 3.0 mi SE 5.8 mph - N/A   Haze
8:53 AM 48.9 °F - 28.0 °F 44% 29.96 in 4.0 mi Variable 6.9 mph - N/A   Haze
9:22 AM 48.2 °F - 28.4 °F 46% 29.90 in 2.5 mi SSE 6.9 mph - N/A   Haze
9:29 AM - - - N/A% 29.89 in 4.0 mi SSE 10.4 mph 17.3 mph 0.00 in Rain Light Rain
9:53 AM - - - N/A% 29.89 in 4.0 mi South 8.1 mph 18.4 mph 0.00 in   Haze
10:02 AM - - - N/A% 29.89 in 2.5 mi South 11.5 mph 21.9 mph N/A   Overcast
10:24 AM - - - N/A% 29.88 in 1.5 mi SSE 10.4 mph 17.3 mph N/A   Overcast
10:53 AM - - - N/A% 29.88 in 1.5 mi SSE 9.2 mph - 0.00 in Rain Light Rain
11:53 AM - - - N/A% 29.86 in 1.5 mi South 9.2 mph - 0.00 in Rain Light Rain
12:53 PM - - - N/A% 29.83 in 1.2 mi SSE 8.1 mph - 0.00 in Rain Light Rain
1:28 PM - - - N/A% 29.82 in 2.0 mi South 9.2 mph - 0.00 in   Overcast
1:53 PM - - - N/A% 29.80 in 2.5 mi SSE 6.9 mph - 0.00 in Rain Light Rain
2:06 PM - - - N/A% 29.79 in 3.0 mi SSE 9.2 mph - 0.00 in Rain Light Rain
2:31 PM - - - N/A% 29.79 in 2.0 mi SSE 8.1 mph - 0.02 in Rain Rain
2:51 PM - - - N/A% 29.79 in 2.5 mi SSE 8.1 mph - 0.05 in Rain Rain
2:53 PM - - - N/A% 29.79 in 3.0 mi SE 8.1 mph - 0.05 in Rain Rain
3:53 PM - - - N/A% 29.76 in 5.0 mi SSE 8.1 mph - 0.05 in Rain Light Rain
4:53 PM - - - N/A% 29.74 in 5.0 mi SE 5.8 mph - 0.03 in Rain Light Rain
5:38 PM - - - N/A% 29.74 in 2.0 mi SSE 6.9 mph - 0.01 in Rain Light Rain
5:53 PM 35.1 °F 30.1 °F 32.0 °F 89% 29.78 in 3.0 mi SSE 5.8 mph - 0.02 in Rain Light Rain
6:53 PM 35.1 °F 30.1 °F 32.0 °F 89% 29.78 in 4.0 mi South 5.8 mph - 0.00 in   Overcast
7:53 PM 35.1 °F 31.0 °F 33.1 °F 92% 29.77 in 3.0 mi South 4.6 mph - N/A   Overcast
8:49 PM 35.6 °F - 33.8 °F 93% 29.75 in 2.0 mi Calm Calm - 0.00 in   Overcast
8:53 PM 35.1 °F - 33.1 °F 92% 29.78 in 2.0 mi Calm Calm - 0.00 in Rain Light Rain
9:32 PM 35.6 °F 32.8 °F 33.8 °F 93% 29.75 in 1.8 mi Variable 3.5 mph - 0.00 in Rain Light Rain
9:50 PM 35.6 °F - 33.8 °F 93% 29.76 in 2.0 mi Calm Calm - 0.02 in Rain Light Rain
9:53 PM 35.1 °F - 33.1 °F 92% 29.76 in 2.5 mi Calm Calm - 0.02 in Rain Light Rain
10:11 PM 35.6 °F - 33.8 °F 93% 29.75 in 2.5 mi Calm Calm - 0.02 in Rain Light Rain
10:35 PM 33.8 °F - 32.0 °F 93% 29.75 in 1.5 mi Calm Calm - 0.02 in   Overcast
10:53 PM 34.0 °F - 32.0 °F 92% 29.76 in 1.0 mi Calm Calm - 0.02 in   Overcast
11:40 PM 33.8 °F - 32.0 °F 93% 29.75 in 1.2 mi Calm Calm - N/A   Overcast
11:53 PM 34.0 °F - 32.0 °F 92% 29.76 in 1.5 mi Calm Calm - N/A   Overcast